Burlington, VT

10:56 AM EDT on May 28, 2017 (GMT -0400)
Burlington International

Weather History for KBTV - July, 2013

Change the Weather History Date:

Saturday, July 6, 2013

  Actual Average Record
Temperature  
Mean Temperature 78 °F 70 °F  
Max Temperature 88 °F 81 °F 95 °F (2010)
Min Temperature 68 °F 60 °F 39 °F (1962)
Degree Days  
Heating Degree Days 0 1  
Month to date heating degree days 0 6  
Since 1 June heating degree days 65 79  
Since 1 July heating degree days 0 6  
Cooling Degree Days 13 6  
Month to date cooling degree days 60 36  
Year to date cooling degree days 222 152  
Since 1 June cooling degree days 175 133  
Growing Degree Days 30 (Base 50)    
Moisture  
Dew Point 67 °F    
Average Humidity 67    
Maximum Humidity 93    
Minimum Humidity 40    
Precipitation  
Precipitation T in 0.14 in 1.47 in (1984)
Month to date precipitation 3.05 0.79  
Year to date precipitation 28.18 16.79  
Snow  
Snow 0.00 in 0.00 in 0.00 in (2002)
Month to date snowfall 0.0 0.0  
Since 1 June snowfall 0.0 0.0  
Since 1 July snowfall 0.0 0.0  
Snow Depth 0.00 in    
Sea Level Pressure  
Sea Level Pressure 30.03 in    
Wind  
Wind Speed 5 mph (SW)    
Max Wind Speed 13 mph    
Max Gust Speed 16 mph    
Visibility 10 miles    
Events      
T = Trace of Precipitation, MM = Missing Value Source: NWS Daily Summary

Daily Weather History Graph

Daily Weather History Graph

Search for Another Location

Airport or City:

Trip Planner

Search our weather history database for the weather conditions in past years. The results will help you decide how hot, cold, wet, or windy it might be!

Date:

Astronomy

Jul. 06, 2013 Rise Set
Actual Time 5:15 AM EDT 8:39 PM EDT
Civil Twilight 4:38 AM EDT 9:15 PM EDT
Nautical Twilight 3:51 AM EDT 10:02 PM EDT
Astronomical Twilight 2:51 AM EDT 11:02 PM EDT
Moon 4:00 AM EDT (7/6) 7:16 PM EDT (7/6)
Length of Visible Light 16h 36m
Length of Day
15h 24m
Waning Crescent, 2% of the Moon is Illuminated
Jul 6
Waning Crescent
Jul 8
New
Jul 15
First Quarter
Jul 22
Full
Jul 29
Last Quarter

Hourly Weather History & Observations

Time (EDT) Temp. Heat Index Dew Point Humidity Pressure Visibility Wind Dir Wind Speed Gust Speed Precip Events Conditions
12:54 AM 75.9 °F - 71.1 °F 85% 30.05 in 10.0 mi Calm Calm - N/A   Mostly Cloudy
1:54 AM 75.9 °F - 71.1 °F 85% 30.04 in 10.0 mi South 8.1 mph - N/A   Overcast
2:54 AM 75.9 °F - 71.1 °F 85% 30.05 in 10.0 mi SSW 5.8 mph - N/A   Overcast
3:54 AM 75.0 °F - 71.1 °F 87% 30.05 in 10.0 mi SW 5.8 mph - N/A   Scattered Clouds
4:54 AM 73.9 °F - 71.1 °F 91% 30.05 in 10.0 mi South 5.8 mph - N/A   Mostly Cloudy
5:54 AM 73.9 °F - 71.1 °F 91% 30.05 in 10.0 mi SSE 3.5 mph - N/A   Mostly Cloudy
6:54 AM 73.9 °F - 71.1 °F 91% 30.06 in 10.0 mi South 4.6 mph - N/A   Mostly Cloudy
7:54 AM 73.9 °F - 71.1 °F 91% 30.07 in 10.0 mi SSW 6.9 mph - 0.00 in   Mostly Cloudy
8:31 AM 73.4 °F - 71.6 °F 94% 30.07 in 10.0 mi South 10.4 mph - N/A   Overcast
8:54 AM 75.0 °F - 70.0 °F 84% 30.06 in 10.0 mi SSW 6.9 mph - N/A   Overcast
9:54 AM 80.1 °F 82.3 °F 66.9 °F 64% 30.06 in 10.0 mi West 3.5 mph - N/A   Mostly Cloudy
10:54 AM 78.1 °F - 66.9 °F 68% 30.06 in 10.0 mi West 4.6 mph - N/A   Overcast
11:54 AM 81.0 °F 83.3 °F 66.9 °F 62% 30.06 in 10.0 mi West 5.8 mph - 0.00 in   Mostly Cloudy
12:54 PM 84.0 °F 86.5 °F 66.9 °F 56% 30.06 in 10.0 mi West 10.4 mph - N/A   Scattered Clouds
1:54 PM 84.0 °F 84.9 °F 63.0 °F 49% 30.04 in 10.0 mi West 9.2 mph - N/A   Scattered Clouds
2:54 PM 86.0 °F 86.8 °F 63.0 °F 46% 30.03 in 10.0 mi WSW 11.5 mph 16.1 mph N/A   Scattered Clouds
3:54 PM 87.1 °F 86.7 °F 60.1 °F 40% 30.01 in 10.0 mi WNW 6.9 mph - N/A   Scattered Clouds
4:54 PM 88.0 °F 87.9 °F 61.0 °F 40% 30.00 in 10.0 mi West 5.8 mph - N/A   Partly Cloudy
5:54 PM 86.0 °F 86.1 °F 61.0 °F 43% 29.99 in 10.0 mi WSW 4.6 mph - N/A   Partly Cloudy
6:54 PM 84.9 °F 85.9 °F 63.0 °F 48% 29.98 in 10.0 mi WSW 3.5 mph - N/A   Clear
7:54 PM 82.9 °F 84.0 °F 63.0 °F 51% 29.98 in 10.0 mi SW 3.5 mph - N/A   Clear
8:54 PM 79.0 °F - 63.0 °F 58% 29.99 in 10.0 mi Calm Calm - N/A   Clear
9:54 PM 75.9 °F - 64.9 °F 69% 30.01 in 10.0 mi Calm Calm - N/A   Clear
10:54 PM 71.1 °F - 66.0 °F 84% 30.03 in 10.0 mi SSE 3.5 mph - N/A   Clear
11:54 PM 71.1 °F - 64.0 °F 78% 30.02 in 10.0 mi South 3.5 mph - N/A   Clear